SCP
0 0 0 0 0 0 0 0 0 -0 0 0 0 0 0 -0 -0 0 0 -0 -1 -0 -0 -0 -0 -0 -0 -0 -0 -0 -0 -0 -0 -0 -0 -0 0 0 -0 0 0 0 0 0 0 -0 -0 -0 -0
0 0 0 0 0 0 0 0 0 -0 0 0 0 0 0 0 0 0 0 -0 -0 -0 0 -0 -0 -0 -0 -0 -0 -0 -0 -0 -0 -0 -0 -0 -0 -0 -0 0 0 0 0 0 -0 -0 -0 -0 -0
0 0 0 0 0 0 0 -0 -0 0 0 0 0 0 0 1 0 0 0 -1 -0 -0 0 0 -0 -0 -0 -0 -0 -0 -0 -0 -0 -0 -0 -0 -0 -0 -0 0 0 0 0 0 -0 -0 -0 -0 -0
0 0 0 0 0 0 0 0 0 0 0 0 0 0 0 1 1 0 0 -0 -0 -0 0 -0 -0 -0 -0 -0 -0 -0 -0 -0 -0 -0 -0 -0 -0 -0 0 -0 0 0 0 -0 -0 -0 -0 -0 -0
0 0 0 0 0 0 0 0 -0 0 0 0 0 0 0 1 1 0 0 0 0 0 0 0 0 -0 -0 -0 -0 -0 -0 -0 -0 -0 -0 -0 -0 0 0 -0 0 -0 0 0 -0 0 0 0 -0
0 0 0 0 0 0 0 0 0 0 0 0 0 -0 0 1 1 0 0 0 0 1 0 0 0 0 0 -0 -0 -0 -0 -0 -0 -0 0 0 0 0 0 0 0 0 0 0 0 0 0 0 -0
0 0 0 0 0 0 0 0 0 0 -0 0 0 0 0 1 1 1 0 0 0 1 0 0 0 0 0 0 0 0 0 0 0 0 0 0 0 0 0 0 0 0 0 0 0 0 -0 -0 -0
0 0 0 0 0 0 0 0 0 0 0 0 0 0 1 2 0 1 0 0 0 0 0 0 0 0 0 0 0 0 0 0 0 0 0 0 0 0 0 0 0 0 0 0 0 0 0 0 0
0 0 0 0 0 0 0 0 0 0 0 0 0 0 0 1 1 0 0 0 0 0 0 0 0 0 0 0 0 1 0 0 0 0 0 0 0 0 0 0 0 0 0 0 0 0 0 0 0
0 0 0 0 0 0 0 0 0 0 0 0 0 0 0 0 0 0 0 0 0 1 0 0 0 0 0 0 1 0 0 0 0 0 0 0 -0 0 0 0 0 0 0 0 0 0 0 0 0
0 0 0 0 0 0 0 0 0 0 0 0 0 0 0 -0 0 0 0 -0 0 0 0 0 1 0 0 0 0 0 0 0 0 0 0 -0 -0 0 0 0 0 0 0 0 0 0 0 0 0
0 0 0 0 0 0 0 0 0 0 0 0 0 0 0 1 -0 0 0 1 0 0 1 1 1 1 0 1 1 0 0 0 0 0 0 0 -0 0 0 0 0 0 0 0 0 0 0 0 0
0 0 0 0 0 0 0 0 0 0 0 0 0 0 0 0 0 1 1 1 0 0 0 1 2 2 -0 4 1 0 0 0 0 0 0 0 -0 0 0 0 0 0 0 0 0 0 0 0 0
0 0 0 0 0 0 0 0 0 0 0 0 0 0 0 0 0 0 0 0 0 1 0 0 0 4 1 2 2 1 0 0 0 1 1 0 0 0 1 0 0 0 1 1 0 0 1 1 1
0 0 0 0 0 0 0 0 0 0 0 0 0 0 0 0 0 0 0 1 0 0 0 0 0 0 2 -0 3 2 1 1 1 1 1 1 0 0 1 1 1 1 1 1 1 1 1 1 1
0 0 0 0 0 0 0 0 0 0 0 0 0 0 0 0 0 0 0 0 0 0 0 -0 0 0 0 0 3 3 2 1 2 1 3 2 1 1 2 2 2 1 2 2 1 2 2 1 2
0 0 0 0 0 0 0 -0 0 0 0 0 0 0 0 0 0 0 0 0 0 0 0 -0 0 0 -0 1 2 3 2 2 1 2 2 3 2 2 2 2 2 2 2 1 2 3 1 2 3
0 0 0 0 0 0 0 0 0 0 0 0 0 0 0 0 0 0 0 0 0 0 0 0 -0 0 0 0 1 1 1 1 1 2 2 4 3 2 3 3 4 5 2 1 2 1 2 2 1
-0 -0 -0 0 0 0 0 0 0 0 0 0 0 0 0 0 0 0 0 0 0 0 0 0 0 0 0 0 -0 -0 1 1 1 2 2 5 5 4 8 2 4 4 4 3 3 3 2 2 1
-0 0 0 0 0 0 0 0 0 0 0 0 0 0 0 0 0 1 0 0 0 0 0 0 0 2 3 4 3 2 1 1 2 2 2 6 7 7 5 4 5 2 2 1 2 2 2 1 0
0 0 0 0 0 0 0 0 0 0 0 0 0 0 0 -0 0 0 1 0 0 0 1 0 1 1 5 2 3 2 2 3 3 4 9 7 3 7 5 4 2 2 1 3 4 3 2 1 0
0 0 0 0 0 0 -0 0 0 0 0 0 0 0 0 0 0 0 0 0 0 0 0 2 1 1 1 2 3 4 4 2 1 1 4 9 7 6 4 3 2 2 3 1 1 3 2 1 0
0 0 0 0 0 0 0 0 0 0 0 0 0 0 0 0 0 0 0 1 1 0 0 0 4 4 5 3 2 1 3 2 2 5 10 12 11 6 4 4 2 2 2 1 1 2 3 1 0
0 0 0 0 0 0 0 0 0 0 0 0 0 0 0 0 0 1 1 1 1 0 0 0 1 5 3 4 4 3 6 6 1 4 5 6 5 2 1 1 1 1 2 2 1 2 2 2 1
0 0 0 0 0 0 -0 0 0 0 0 0 0 0 0 0 0 0 0 0 0 0 0 3 4 5 6 3 5 0 2 2 4 4 2 2 1 1 2 1 2 2 2 1 1 2 2 2 1
0 -0 0 0 0 -0 -0 0 0 0 0 0 0 0 0 0 0 0 0 0 0 0 1 0 2 2 3 1 0 0 0 2 0 0 0 1 1 1 2 2 2 2 2 2 3 3 2 1 1
0 0 -0 0 0 0 0 0 0 0 0 0 0 -0 0 0 0 0 0 1 0 0 1 1 1 1 0 0 0 0 0 0 0 0 0 0 0 0 0 0 0 0 0 1 1 1 1 1 2
0 0 0 0 0 0 0 0 0 0 0 -0 0 0 0 0 0 0 0 0 0 0 0 0 0 0 0 0 0 0 0 0 0 0 0 0 0 0 0 0 0 0 0 0 0 0 0 1 1
-0 0 0 0 0 0 0 -0 0 0 0 0 -0 0 0 0 0 0 0 0 0 0 0 0 0 0 0 0 0 0 0 0 0 0 0 0 0 0 0 0 0 0 0 0 0 0 0 0 0
-0 0 0 0 0 0 0 0 0 0 0 0 0 -0 0 0 0 0 0 0 0 0 0 0 0 0 0 0 0 0 0 0 0 0 0 0 0 0 0 0 0 0 0 0 0 0 0 0 0
Wind_Speed_500mb
28 15 25 35 15 15 32 39 43 46 18 1 12 12 26 31 25 5 44 41 46 48 55 53 52 50 45 41 36 33 31 29 28 24 21 23 24 25 25 25 27 25 21 19 17 15 16 16 17
30 19 28 32 22 25 30 42 47 41 10 13 9 14 17 32 28 42 34 45 48 54 56 55 52 50 46 41 36 34 33 32 29 24 20 20 21 22 22 23 25 23 20 16 14 14 15 14 15
28 17 24 13 28 33 34 45 23 42 18 27 6 10 16 26 41 44 46 50 44 57 57 55 54 51 46 41 37 36 37 36 32 26 19 18 18 21 21 22 23 21 18 13 13 15 15 14 14
14 16 27 25 41 42 50 49 24 20 33 20 13 12 23 18 15 26 51 51 45 51 55 53 51 48 43 42 39 39 41 39 33 27 20 17 17 22 23 22 21 18 15 13 14 15 14 13 12
29 28 26 33 47 50 45 52 57 15 32 36 32 21 9 31 48 45 53 49 49 48 50 55 52 45 43 41 39 38 40 38 33 27 21 18 19 23 25 24 22 18 15 13 13 13 11 9 9
30 44 30 38 50 48 44 67 57 14 28 35 19 27 12 36 37 50 48 42 43 49 43 55 53 50 43 42 42 42 40 37 32 28 24 21 21 25 28 26 22 18 14 12 11 12 11 10 9
38 28 39 47 48 46 48 59 40 32 43 32 31 20 23 33 37 47 51 43 47 45 40 56 53 50 46 42 41 41 39 37 33 30 26 22 24 28 31 28 25 21 18 15 14 14 13 13 13
52 29 50 48 41 54 50 53 44 58 25 38 17 14 7 29 33 34 42 48 45 30 38 56 54 50 48 47 45 42 39 36 33 31 27 25 28 31 32 30 27 23 20 17 15 14 13 14 15
51 32 38 54 52 42 55 47 39 29 33 56 31 36 11 15 31 19 15 47 47 42 29 41 51 50 48 48 47 44 41 38 35 33 31 30 32 34 34 31 28 25 23 19 17 16 16 17 17
41 34 55 47 43 46 54 54 41 45 44 52 35 15 3 12 33 52 43 42 45 47 38 41 41 47 45 42 48 46 43 41 38 36 34 34 33 32 32 30 27 25 24 23 21 20 21 23 20
56 48 44 54 61 60 55 56 62 47 29 44 50 36 23 5 45 59 84 60 44 42 36 46 45 39 42 39 42 47 45 42 39 37 36 34 30 21 21 24 27 29 29 26 24 23 24 26 25
49 61 62 56 56 46 49 58 55 58 35 38 51 57 16 21 41 69 24 19 19 15 44 49 50 45 49 50 34 46 37 39 37 36 35 36 34 33 27 33 25 15 19 23 24 25 15 19 21
49 45 57 58 58 59 59 49 51 60 55 40 8 21 17 5 8 8 7 17 18 9 12 42 47 44 55 50 40 37 40 28 26 25 32 35 43 34 40 33 30 34 20 13 16 16 19 25 27
49 51 47 49 54 49 50 51 54 54 54 49 26 48 33 23 11 10 7 17 2 10 16 6 44 48 59 50 47 40 45 41 35 34 29 28 36 34 34 33 36 36 32 28 27 23 23 28 29
54 42 37 40 46 42 42 47 58 49 55 62 68 43 45 40 25 13 18 22 19 26 20 42 30 49 56 68 49 49 44 42 38 40 35 32 34 36 37 33 28 31 34 34 36 37 32 37 40
35 41 40 40 38 40 49 50 47 64 58 61 67 64 42 41 47 30 21 20 17 28 27 43 56 41 31 76 55 44 43 38 34 36 36 39 36 43 40 39 35 30 32 34 31 28 31 37 27
42 34 43 42 41 38 44 52 40 52 65 67 72 67 52 68 49 46 33 33 20 14 15 17 18 25 77 81 65 54 40 39 31 33 36 39 38 36 47 39 37 36 36 44 36 40 31 27 23
37 43 36 38 42 37 44 47 41 53 57 54 74 71 73 57 63 57 46 48 40 15 9 14 8 32 81 39 20 27 28 30 29 33 35 43 40 37 44 47 38 45 50 38 12 28 44 43 39
44 43 40 38 33 36 42 43 42 44 55 54 65 56 75 65 60 75 69 68 70 43 19 4 26 25 10 66 13 26 25 29 32 33 36 44 43 39 51 52 46 48 40 42 32 30 32 34 31
49 43 36 22 20 28 35 37 36 35 38 51 57 62 63 68 65 57 70 63 66 57 45 20 23 25 6 15 11 19 17 29 34 31 31 48 43 43 44 45 45 39 43 25 37 50 45 48 38
45 40 36 28 24 33 24 37 37 36 51 57 61 64 72 80 58 48 66 63 71 69 67 29 25 23 24 13 13 22 31 25 17 30 34 45 37 40 46 34 33 23 28 32 34 39 40 37 29
42 39 40 31 24 25 31 23 31 22 33 36 47 56 65 73 51 60 70 78 84 79 69 62 38 22 23 15 17 28 25 20 25 26 24 39 35 28 35 38 35 38 44 44 41 40 39 36 40
34 34 37 29 27 30 39 22 25 25 17 28 33 53 66 64 62 74 59 82 93 80 60 66 44 35 24 20 24 29 32 24 22 22 29 28 34 25 38 36 41 42 45 44 38 32 38 46 44
37 34 31 37 31 29 38 35 28 31 9 18 34 27 46 45 3 6 21 56 81 60 44 59 69 58 37 37 36 46 43 38 34 36 34 28 33 37 40 33 39 42 42 39 40 43 50 53 55
38 33 23 25 23 27 37 35 31 26 20 9 29 50 24 39 14 12 16 33 51 47 36 48 59 60 54 38 43 48 55 51 42 27 24 16 15 21 25 28 35 37 39 42 43 47 51 55 60
44 39 23 33 22 27 35 33 14 28 34 39 52 29 10 36 34 29 26 20 35 43 37 27 21 28 25 25 35 40 40 27 30 38 28 30 33 28 18 30 35 37 41 44 50 55 59 62 65
42 40 40 36 11 9 25 12 28 27 20 33 42 48 33 42 42 37 37 45 22 24 31 30 27 31 25 18 14 19 24 24 26 24 32 33 38 44 46 42 45 49 54 59 64 67 70 73 72
42 38 35 25 13 13 30 20 13 26 21 39 36 43 48 46 47 43 44 42 35 28 31 25 27 27 20 15 12 13 16 20 21 22 26 29 34 38 43 49 52 56 58 61 65 70 73 68 68
33 20 20 14 5 14 11 9 11 20 9 26 38 41 51 52 44 44 47 44 39 32 29 27 21 16 15 6 8 5 6 11 16 21 27 33 38 44 48 52 56 61 62 61 64 68 71 75 78
39 33 26 13 18 11 12 8 29 16 17 20 10 42 43 49 53 48 43 41 38 34 26 22 17 12 7 6 3 8 11 19 25 30 35 40 46 52 55 60 63 64 65 62 63 66 66 68 70
Wind_Direction_500mb
250 266 300 281 257 228 252 255 248 269 281 208 80 328 336 98 106 126 139 144 169 162 157 162 163 163 163 164 166 168 167 166 160 147 127 118 123 130 133 132 141 144 139 128 118 111 113 116 120
238 272 272 264 250 248 247 246 261 253 137 65 12 275 275 102 123 122 136 148 167 159 159 163 166 166 166 167 169 174 173 171 166 156 136 126 130 139 144 145 146 144 144 138 130 124 124 124 132
228 248 280 242 235 242 252 253 248 320 232 156 220 291 308 63 121 137 154 155 171 158 163 164 165 167 167 168 170 177 179 175 171 162 148 137 140 151 152 151 153 151 152 159 152 146 143 141 147
216 242 251 255 249 232 242 265 297 303 301 334 225 276 90 154 36 143 146 157 152 158 163 164 165 167 169 169 172 178 178 176 173 169 160 154 159 164 164 165 166 169 172 178 166 162 161 161 162
217 249 232 240 244 254 261 249 262 239 275 244 225 218 203 132 154 148 154 159 152 155 164 163 164 167 170 169 169 175 176 177 176 177 173 174 175 175 176 177 183 186 181 186 173 176 179 182 187
220 223 245 235 242 247 251 268 287 268 251 275 253 225 122 139 148 146 156 154 153 164 168 164 166 168 171 172 171 174 177 180 181 183 186 188 185 183 186 187 187 189 190 196 190 193 199 209 219
232 224 235 245 253 242 241 252 260 258 244 249 329 292 163 147 147 150 154 154 153 175 178 168 170 172 171 173 173 176 180 184 187 191 195 196 193 190 190 192 192 193 199 205 207 211 216 225 235
225 245 243 241 246 250 256 232 249 263 264 271 329 269 90 95 114 146 152 156 153 159 180 174 175 176 176 174 176 178 182 187 191 196 201 202 197 195 196 196 201 201 208 214 221 230 238 246 252
227 238 241 241 244 247 258 265 239 191 239 261 281 267 52 186 145 84 156 163 161 163 179 177 179 180 181 181 180 182 184 188 193 199 202 203 200 197 199 201 207 210 216 223 230 241 252 257 262
226 231 238 244 249 262 267 266 248 193 206 238 231 277 340 218 188 236 316 177 171 168 166 184 183 185 178 186 183 184 186 190 195 198 199 197 198 201 207 208 216 223 228 230 236 244 254 260 268
229 239 239 244 254 260 265 272 274 274 214 205 223 249 247 202 170 190 188 196 181 179 177 187 187 192 172 185 190 190 190 194 196 198 198 197 186 204 209 225 229 234 237 241 246 251 267 276 275
229 237 240 259 265 254 258 270 272 281 266 241 214 228 202 242 139 201 143 152 140 171 184 193 191 196 174 195 205 197 194 196 199 200 201 195 182 193 226 210 238 256 272 244 263 257 272 294 289
237 242 239 241 246 257 267 263 257 270 281 240 227 147 199 206 143 232 206 156 135 167 111 173 191 202 179 194 206 190 187 199 199 207 213 201 187 194 211 212 220 244 263 264 264 269 253 265 270
241 243 248 252 252 241 248 258 258 255 259 271 225 189 221 229 193 111 221 209 253 336 277 242 171 209 194 191 197 192 183 197 191 208 225 217 198 193 220 214 213 217 221 246 249 260 256 260 267
255 262 254 237 249 248 249 246 247 244 249 261 268 190 195 209 211 174 113 88 143 22 313 282 229 187 207 201 185 197 196 188 194 202 220 228 216 199 221 219 230 224 225 224 229 230 231 238 255
242 241 248 244 229 234 251 246 241 244 240 250 260 261 197 218 214 201 166 152 95 52 19 346 231 219 223 221 195 190 190 204 189 203 210 227 235 211 215 214 218 231 232 236 239 242 251 245 274
231 237 233 244 247 228 224 247 246 253 230 242 259 256 237 213 212 206 206 203 175 84 1 346 250 229 253 208 197 187 194 193 206 209 214 233 244 246 220 216 221 222 229 227 224 243 257 269 263
227 223 238 243 224 233 237 238 240 245 256 256 232 248 254 235 209 201 219 238 222 223 354 17 329 243 265 223 176 189 191 209 204 217 220 231 238 248 234 217 214 222 226 259 240 259 253 252 247
239 232 228 222 224 245 229 236 243 238 232 241 258 239 241 245 245 219 219 229 223 225 247 331 320 351 99 169 187 217 216 215 217 223 231 239 229 233 244 234 216 223 234 250 234 256 255 271 273
235 251 258 240 238 230 250 257 251 250 242 237 243 248 251 251 239 226 204 210 224 222 215 259 272 293 1 192 224 233 210 226 232 228 230 233 238 229 251 260 247 235 240 237 230 244 247 256 258
227 237 244 249 247 232 263 262 250 245 237 232 241 238 240 250 231 210 208 209 213 212 211 222 239 299 289 186 219 238 240 221 215 221 235 236 225 241 251 247 232 238 230 221 245 258 262 266 264
219 215 239 243 246 260 242 276 270 261 253 226 228 241 237 248 238 241 207 202 195 207 211 213 218 239 316 301 255 250 234 232 240 250 226 246 269 273 237 238 239 232 235 242 237 254 265 268 271
226 218 220 236 245 262 267 255 262 284 280 280 237 226 236 236 229 236 234 195 196 205 207 198 205 246 277 285 287 271 252 239 229 263 233 230 236 227 225 232 223 239 239 242 235 231 247 260 267
218 233 224 222 230 234 241 254 254 260 254 322 337 304 250 224 319 199 261 227 187 197 216 220 220 237 254 249 276 259 269 265 255 257 236 220 222 236 244 222 244 248 252 253 249 248 249 254 263
214 213 219 225 228 240 244 243 253 97 92 69 40 16 301 79 2 300 102 136 170 187 186 195 206 220 231 237 267 257 249 248 239 199 202 201 234 249 247 243 233 249 266 267 267 264 262 265 268
208 211 217 218 221 246 249 242 185 127 111 98 76 57 135 115 121 108 139 165 173 171 186 186 181 187 213 207 207 208 209 191 208 204 195 199 204 208 209 204 217 226 236 246 255 261 267 268 267
196 218 228 252 56 282 286 126 134 146 150 146 165 191 126 110 104 103 107 139 98 116 127 135 131 131 142 163 202 214 190 192 203 211 220 227 229 231 243 255 262 262 263 263 264 265 265 262 263
234 213 218 230 175 246 265 281 127 160 177 190 155 135 127 114 114 114 108 108 110 105 104 99 102 115 135 160 149 190 198 215 224 234 246 261 265 269 272 276 276 277 276 273 272 273 273 271 271
216 199 245 296 221 206 243 256 111 144 125 332 134 130 123 120 116 113 117 114 109 99 98 92 98 99 108 151 181 240 267 280 275 280 281 283 286 289 289 288 287 286 285 282 280 279 279 279 279
215 220 191 219 234 189 176 314 12 16 59 88 253 133 126 122 119 114 109 108 109 110 104 102 107 108 81 79 10 332 305 299 300 299 297 299 299 296 295 293 291 289 287 286 283 284 282 280 278
Wind_Speed_850mb
28 15 25 35 15 15 32 39 43 46 18 1 12 12 26 31 25 5 44 41 46 48 55 53 52 50 45 41 36 33 31 29 28 24 21 23 24 25 25 25 27 25 21 19 17 15 16 16 17
30 19 28 32 22 25 30 42 47 41 10 13 9 14 17 32 28 42 34 45 48 54 56 55 52 50 46 41 36 34 33 32 29 24 20 20 21 22 22 23 25 23 20 16 14 14 15 14 15
28 17 24 13 28 33 34 45 23 42 18 27 6 10 16 26 41 44 46 50 44 57 57 55 54 51 46 41 37 36 37 36 32 26 19 18 18 21 21 22 23 21 18 13 13 15 15 14 14
14 16 27 25 41 42 50 49 24 20 33 20 13 12 23 18 15 26 51 51 45 51 55 53 51 48 43 42 39 39 41 39 33 27 20 17 17 22 23 22 21 18 15 13 14 15 14 13 12
29 28 26 33 47 50 45 52 57 15 32 36 32 21 9 31 48 45 53 49 49 48 50 55 52 45 43 41 39 38 40 38 33 27 21 18 19 23 25 24 22 18 15 13 13 13 11 9 9
30 44 30 38 50 48 44 67 57 14 28 35 19 27 12 36 37 50 48 42 43 49 43 55 53 50 43 42 42 42 40 37 32 28 24 21 21 25 28 26 22 18 14 12 11 12 11 10 9
38 28 39 47 48 46 48 59 40 32 43 32 31 20 23 33 37 47 51 43 47 45 40 56 53 50 46 42 41 41 39 37 33 30 26 22 24 28 31 28 25 21 18 15 14 14 13 13 13
52 29 50 48 41 54 50 53 44 58 25 38 17 14 7 29 33 34 42 48 45 30 38 56 54 50 48 47 45 42 39 36 33 31 27 25 28 31 32 30 27 23 20 17 15 14 13 14 15
51 32 38 54 52 42 55 47 39 29 33 56 31 36 11 15 31 19 15 47 47 42 29 41 51 50 48 48 47 44 41 38 35 33 31 30 32 34 34 31 28 25 23 19 17 16 16 17 17
41 34 55 47 43 46 54 54 41 45 44 52 35 15 3 12 33 52 43 42 45 47 38 41 41 47 45 42 48 46 43 41 38 36 34 34 33 32 32 30 27 25 24 23 21 20 21 23 20
56 48 44 54 61 60 55 56 62 47 29 44 50 36 23 5 45 59 84 60 44 42 36 46 45 39 42 39 42 47 45 42 39 37 36 34 30 21 21 24 27 29 29 26 24 23 24 26 25
49 61 62 56 56 46 49 58 55 58 35 38 51 57 16 21 41 69 24 19 19 15 44 49 50 45 49 50 34 46 37 39 37 36 35 36 34 33 27 33 25 15 19 23 24 25 15 19 21
49 45 57 58 58 59 59 49 51 60 55 40 8 21 17 5 8 8 7 17 18 9 12 42 47 44 55 50 40 37 40 28 26 25 32 35 43 34 40 33 30 34 20 13 16 16 19 25 27
49 51 47 49 54 49 50 51 54 54 54 49 26 48 33 23 11 10 7 17 2 10 16 6 44 48 59 50 47 40 45 41 35 34 29 28 36 34 34 33 36 36 32 28 27 23 23 28 29
54 42 37 40 46 42 42 47 58 49 55 62 68 43 45 40 25 13 18 22 19 26 20 42 30 49 56 68 49 49 44 42 38 40 35 32 34 36 37 33 28 31 34 34 36 37 32 37 40
35 41 40 40 38 40 49 50 47 64 58 61 67 64 42 41 47 30 21 20 17 28 27 43 56 41 31 76 55 44 43 38 34 36 36 39 36 43 40 39 35 30 32 34 31 28 31 37 27
42 34 43 42 41 38 44 52 40 52 65 67 72 67 52 68 49 46 33 33 20 14 15 17 18 25 77 81 65 54 40 39 31 33 36 39 38 36 47 39 37 36 36 44 36 40 31 27 23
37 43 36 38 42 37 44 47 41 53 57 54 74 71 73 57 63 57 46 48 40 15 9 14 8 32 81 39 20 27 28 30 29 33 35 43 40 37 44 47 38 45 50 38 12 28 44 43 39
44 43 40 38 33 36 42 43 42 44 55 54 65 56 75 65 60 75 69 68 70 43 19 4 26 25 10 66 13 26 25 29 32 33 36 44 43 39 51 52 46 48 40 42 32 30 32 34 31
49 43 36 22 20 28 35 37 36 35 38 51 57 62 63 68 65 57 70 63 66 57 45 20 23 25 6 15 11 19 17 29 34 31 31 48 43 43 44 45 45 39 43 25 37 50 45 48 38
45 40 36 28 24 33 24 37 37 36 51 57 61 64 72 80 58 48 66 63 71 69 67 29 25 23 24 13 13 22 31 25 17 30 34 45 37 40 46 34 33 23 28 32 34 39 40 37 29
42 39 40 31 24 25 31 23 31 22 33 36 47 56 65 73 51 60 70 78 84 79 69 62 38 22 23 15 17 28 25 20 25 26 24 39 35 28 35 38 35 38 44 44 41 40 39 36 40
34 34 37 29 27 30 39 22 25 25 17 28 33 53 66 64 62 74 59 82 93 80 60 66 44 35 24 20 24 29 32 24 22 22 29 28 34 25 38 36 41 42 45 44 38 32 38 46 44
37 34 31 37 31 29 38 35 28 31 9 18 34 27 46 45 3 6 21 56 81 60 44 59 69 58 37 37 36 46 43 38 34 36 34 28 33 37 40 33 39 42 42 39 40 43 50 53 55
38 33 23 25 23 27 37 35 31 26 20 9 29 50 24 39 14 12 16 33 51 47 36 48 59 60 54 38 43 48 55 51 42 27 24 16 15 21 25 28 35 37 39 42 43 47 51 55 60
44 39 23 33 22 27 35 33 14 28 34 39 52 29 10 36 34 29 26 20 35 43 37 27 21 28 25 25 35 40 40 27 30 38 28 30 33 28 18 30 35 37 41 44 50 55 59 62 65
42 40 40 36 11 9 25 12 28 27 20 33 42 48 33 42 42 37 37 45 22 24 31 30 27 31 25 18 14 19 24 24 26 24 32 33 38 44 46 42 45 49 54 59 64 67 70 73 72
42 38 35 25 13 13 30 20 13 26 21 39 36 43 48 46 47 43 44 42 35 28 31 25 27 27 20 15 12 13 16 20 21 22 26 29 34 38 43 49 52 56 58 61 65 70 73 68 68
33 20 20 14 5 14 11 9 11 20 9 26 38 41 51 52 44 44 47 44 39 32 29 27 21 16 15 6 8 5 6 11 16 21 27 33 38 44 48 52 56 61 62 61 64 68 71 75 78
39 33 26 13 18 11 12 8 29 16 17 20 10 42 43 49 53 48 43 41 38 34 26 22 17 12 7 6 3 8 11 19 25 30 35 40 46 52 55 60 63 64 65 62 63 66 66 68 70
Wind_Direction_850mb
250 266 300 281 257 228 252 255 248 269 281 208 80 328 336 98 106 126 139 144 169 162 157 162 163 163 163 164 166 168 167 166 160 147 127 118 123 130 133 132 141 144 139 128 118 111 113 116 120
238 272 272 264 250 248 247 246 261 253 137 65 12 275 275 102 123 122 136 148 167 159 159 163 166 166 166 167 169 174 173 171 166 156 136 126 130 139 144 145 146 144 144 138 130 124 124 124 132
228 248 280 242 235 242 252 253 248 320 232 156 220 291 308 63 121 137 154 155 171 158 163 164 165 167 167 168 170 177 179 175 171 162 148 137 140 151 152 151 153 151 152 159 152 146 143 141 147
216 242 251 255 249 232 242 265 297 303 301 334 225 276 90 154 36 143 146 157 152 158 163 164 165 167 169 169 172 178 178 176 173 169 160 154 159 164 164 165 166 169 172 178 166 162 161 161 162
217 249 232 240 244 254 261 249 262 239 275 244 225 218 203 132 154 148 154 159 152 155 164 163 164 167 170 169 169 175 176 177 176 177 173 174 175 175 176 177 183 186 181 186 173 176 179 182 187
220 223 245 235 242 247 251 268 287 268 251 275 253 225 122 139 148 146 156 154 153 164 168 164 166 168 171 172 171 174 177 180 181 183 186 188 185 183 186 187 187 189 190 196 190 193 199 209 219
232 224 235 245 253 242 241 252 260 258 244 249 329 292 163 147 147 150 154 154 153 175 178 168 170 172 171 173 173 176 180 184 187 191 195 196 193 190 190 192 192 193 199 205 207 211 216 225 235
225 245 243 241 246 250 256 232 249 263 264 271 329 269 90 95 114 146 152 156 153 159 180 174 175 176 176 174 176 178 182 187 191 196 201 202 197 195 196 196 201 201 208 214 221 230 238 246 252
227 238 241 241 244 247 258 265 239 191 239 261 281 267 52 186 145 84 156 163 161 163 179 177 179 180 181 181 180 182 184 188 193 199 202 203 200 197 199 201 207 210 216 223 230 241 252 257 262
226 231 238 244 249 262 267 266 248 193 206 238 231 277 340 218 188 236 316 177 171 168 166 184 183 185 178 186 183 184 186 190 195 198 199 197 198 201 207 208 216 223 228 230 236 244 254 260 268
229 239 239 244 254 260 265 272 274 274 214 205 223 249 247 202 170 190 188 196 181 179 177 187 187 192 172 185 190 190 190 194 196 198 198 197 186 204 209 225 229 234 237 241 246 251 267 276 275
229 237 240 259 265 254 258 270 272 281 266 241 214 228 202 242 139 201 143 152 140 171 184 193 191 196 174 195 205 197 194 196 199 200 201 195 182 193 226 210 238 256 272 244 263 257 272 294 289
237 242 239 241 246 257 267 263 257 270 281 240 227 147 199 206 143 232 206 156 135 167 111 173 191 202 179 194 206 190 187 199 199 207 213 201 187 194 211 212 220 244 263 264 264 269 253 265 270
241 243 248 252 252 241 248 258 258 255 259 271 225 189 221 229 193 111 221 209 253 336 277 242 171 209 194 191 197 192 183 197 191 208 225 217 198 193 220 214 213 217 221 246 249 260 256 260 267
255 262 254 237 249 248 249 246 247 244 249 261 268 190 195 209 211 174 113 88 143 22 313 282 229 187 207 201 185 197 196 188 194 202 220 228 216 199 221 219 230 224 225 224 229 230 231 238 255
242 241 248 244 229 234 251 246 241 244 240 250 260 261 197 218 214 201 166 152 95 52 19 346 231 219 223 221 195 190 190 204 189 203 210 227 235 211 215 214 218 231 232 236 239 242 251 245 274
231 237 233 244 247 228 224 247 246 253 230 242 259 256 237 213 212 206 206 203 175 84 1 346 250 229 253 208 197 187 194 193 206 209 214 233 244 246 220 216 221 222 229 227 224 243 257 269 263
227 223 238 243 224 233 237 238 240 245 256 256 232 248 254 235 209 201 219 238 222 223 354 17 329 243 265 223 176 189 191 209 204 217 220 231 238 248 234 217 214 222 226 259 240 259 253 252 247
239 232 228 222 224 245 229 236 243 238 232 241 258 239 241 245 245 219 219 229 223 225 247 331 320 351 99 169 187 217 216 215 217 223 231 239 229 233 244 234 216 223 234 250 234 256 255 271 273
235 251 258 240 238 230 250 257 251 250 242 237 243 248 251 251 239 226 204 210 224 222 215 259 272 293 1 192 224 233 210 226 232 228 230 233 238 229 251 260 247 235 240 237 230 244 247 256 258
227 237 244 249 247 232 263 262 250 245 237 232 241 238 240 250 231 210 208 209 213 212 211 222 239 299 289 186 219 238 240 221 215 221 235 236 225 241 251 247 232 238 230 221 245 258 262 266 264
219 215 239 243 246 260 242 276 270 261 253 226 228 241 237 248 238 241 207 202 195 207 211 213 218 239 316 301 255 250 234 232 240 250 226 246 269 273 237 238 239 232 235 242 237 254 265 268 271
226 218 220 236 245 262 267 255 262 284 280 280 237 226 236 236 229 236 234 195 196 205 207 198 205 246 277 285 287 271 252 239 229 263 233 230 236 227 225 232 223 239 239 242 235 231 247 260 267
218 233 224 222 230 234 241 254 254 260 254 322 337 304 250 224 319 199 261 227 187 197 216 220 220 237 254 249 276 259 269 265 255 257 236 220 222 236 244 222 244 248 252 253 249 248 249 254 263
214 213 219 225 228 240 244 243 253 97 92 69 40 16 301 79 2 300 102 136 170 187 186 195 206 220 231 237 267 257 249 248 239 199 202 201 234 249 247 243 233 249 266 267 267 264 262 265 268
208 211 217 218 221 246 249 242 185 127 111 98 76 57 135 115 121 108 139 165 173 171 186 186 181 187 213 207 207 208 209 191 208 204 195 199 204 208 209 204 217 226 236 246 255 261 267 268 267
196 218 228 252 56 282 286 126 134 146 150 146 165 191 126 110 104 103 107 139 98 116 127 135 131 131 142 163 202 214 190 192 203 211 220 227 229 231 243 255 262 262 263 263 264 265 265 262 263
234 213 218 230 175 246 265 281 127 160 177 190 155 135 127 114 114 114 108 108 110 105 104 99 102 115 135 160 149 190 198 215 224 234 246 261 265 269 272 276 276 277 276 273 272 273 273 271 271
216 199 245 296 221 206 243 256 111 144 125 332 134 130 123 120 116 113 117 114 109 99 98 92 98 99 108 151 181 240 267 280 275 280 281 283 286 289 289 288 287 286 285 282 280 279 279 279 279
215 220 191 219 234 189 176 314 12 16 59 88 253 133 126 122 119 114 109 108 109 110 104 102 107 108 81 79 10 332 305 299 300 299 297 299 299 296 295 293 291 289 287 286 283 284 282 280 278